Year,Month,Day,Hour,Minute,Value (Times are PST for temperature in C)
2013,07,01,00,00,19.30
2013,07,01,00,01,19.30
2013,07,01,00,02,19.20
2013,07,01,00,03,19.10
2013,07,01,00,04,19.10
2013,07,01,00,05,19.10
2013,07,01,00,06,19.10
2013,07,01,00,07,19.10
2013,07,01,00,08,19.10
2013,07,01,00,09,19.20
2013,07,01,00,10,19.30
2013,07,01,00,11,19.30
2013,07,01,00,12,19.30
2013,07,01,00,13,19.40
2013,07,01,00,14,19.40
2013,07,01,00,15,19.40
2013,07,01,00,16,19.40
2013,07,01,00,17,19.40
2013,07,01,00,18,19.40
2013,07,01,00,19,19.40
2013,07,01,00,20,19.40
2013,07,01,00,21,19.40
2013,07,01,00,22,19.40
2013,07,01,00,23,19.40
2013,07,01,00,24,19.40
2013,07,01,00,25,19.40
2013,07,01,00,26,19.30
2013,07,01,00,27,19.30
2013,07,01,00,28,19.30
2013,07,01,00,29,19.20
2013,07,01,00,30,19.20
2013,07,01,00,31,19.10
2013,07,01,00,32,19.10
2013,07,01,00,33,19.10
2013,07,01,00,34,19.00
2013,07,01,00,35,19.00
2013,07,01,00,36,18.90
2013,07,01,00,37,19.00
2013,07,01,00,38,19.10
2013,07,01,00,39,19.20
2013,07,01,00,40,19.20
2013,07,01,00,41,19.30
2013,07,01,00,42,19.40
2013,07,01,00,43,19.60
2013,07,01,00,44,19.60
2013,07,01,00,45,19.60
2013,07,01,00,46,19.60
2013,07,01,00,47,19.60
2013,07,01,00,48,19.60
2013,07,01,00,49,19.50
2013,07,01,00,50,19.40
2013,07,01,00,51,19.40
2013,07,01,00,52,19.30
2013,07,01,00,53,19.20
2013,07,01,00,54,19.20
2013,07,01,00,55,19.10
2013,07,01,00,56,19.10
2013,07,01,00,57,19.00
2013,07,01,00,58,19.00
2013,07,01,00,59,18.90
2013,07,01,01,00,18.90
2013,07,01,01,01,18.90
2013,07,01,01,02,18.80
2013,07,01,01,03,18.80
2013,07,01,01,04,18.80
2013,07,01,01,05,18.70
2013,07,01,01,06,18.70
2013,07,01,01,07,18.70
2013,07,01,01,08,18.70
2013,07,01,01,09,18.70
2013,07,01,01,10,18.70
2013,07,01,01,11,18.70
2013,07,01,01,12,18.70
2013,07,01,01,13,18.70
2013,07,01,01,14,18.70
2013,07,01,01,15,18.70
2013,07,01,01,16,18.70
2013,07,01,01,17,18.70
2013,07,01,01,18,18.70
2013,07,01,01,19,18.70
2013,07,01,01,20,18.80
2013,07,01,01,21,18.80
2013,07,01,01,22,18.80
2013,07,01,01,23,18.90
2013,07,01,01,24,18.90
2013,07,01,01,25,18.90
2013,07,01,01,26,18.90
2013,07,01,01,27,19.00
2013,07,01,01,28,19.00
2013,07,01,01,29,19.00
2013,07,01,01,30,19.00
2013,07,01,01,31,19.00
2013,07,01,01,32,18.90
2013,07,01,01,33,18.90
2013,07,01,01,34,18.90
2013,07,01,01,35,18.90
2013,07,01,01,36,18.80
2013,07,01,01,37,18.80
2013,07,01,01,38,18.80
2013,07,01,01,39,18.70
2013,07,01,01,40,18.70
2013,07,01,01,41,18.60
2013,07,01,01,42,18.60
2013,07,01,01,43,18.50
2013,07,01,01,44,18.50
2013,07,01,01,45,18.40
2013,07,01,01,46,18.40
2013,07,01,01,47,18.40
2013,07,01,01,48,18.40
2013,07,01,01,49,18.30
2013,07,01,01,50,18.30
2013,07,01,01,51,18.30
2013,07,01,01,52,18.30
2013,07,01,01,53,18.30
2013,07,01,01,54,18.30
2013,07,01,01,55,18.30
2013,07,01,01,56,18.30
2013,07,01,01,57,18.30
2013,07,01,01,58,18.30
2013,07,01,01,59,18.30
2013,07,01,02,00,18.30
2013,07,01,02,01,18.30
2013,07,01,02,02,18.40
2013,07,01,02,03,18.40
2013,07,01,02,04,18.40
2013,07,01,02,05,18.50
2013,07,01,02,06,18.50
2013,07,01,02,07,18.60
2013,07,01,02,08,18.60
2013,07,01,02,09,18.70
2013,07,01,02,10,18.70
2013,07,01,02,11,18.70
2013,07,01,02,12,18.80
2013,07,01,02,13,18.80
2013,07,01,02,14,18.80
2013,07,01,02,15,18.80
2013,07,01,02,16,18.80
2013,07,01,02,17,18.90
2013,07,01,02,18,18.90
2013,07,01,02,19,18.90
2013,07,01,02,20,19.00
2013,07,01,02,21,19.10
2013,07,01,02,22,19.10
2013,07,01,02,23,19.20
2013,07,01,02,24,19.30
2013,07,01,02,25,19.40
2013,07,01,02,26,19.60
2013,07,01,02,27,19.70
2013,07,01,02,28,19.80
2013,07,01,02,29,19.90
2013,07,01,02,30,19.90
2013,07,01,02,31,20.00
2013,07,01,02,32,20.00
2013,07,01,02,33,20.10
2013,07,01,02,34,20.10
2013,07,01,02,35,20.10
2013,07,01,02,36,20.10
2013,07,01,02,37,20.20
2013,07,01,02,38,20.20
2013,07,01,02,39,20.20
2013,07,01,02,40,20.20
2013,07,01,02,41,20.20
2013,07,01,02,42,20.20
2013,07,01,02,43,20.20
2013,07,01,02,44,20.20
2013,07,01,02,45,20.20
2013,07,01,02,46,20.20
2013,07,01,02,47,20.10
2013,07,01,02,48,20.10
2013,07,01,02,49,20.10
2013,07,01,02,50,20.10
2013,07,01,02,51,20.10
2013,07,01,02,52,20.10
2013,07,01,02,53,20.10
2013,07,01,02,54,20.10
2013,07,01,02,55,20.10
2013,07,01,02,56,20.10
2013,07,01,02,57,20.10
2013,07,01,02,58,20.10
2013,07,01,02,59,20.10
2013,07,01,03,00,20.10
2013,07,01,03,01,20.10
2013,07,01,03,02,20.10
2013,07,01,03,03,20.10
2013,07,01,03,04,20.10
2013,07,01,03,05,20.10
2013,07,01,03,06,20.20
2013,07,01,03,07,20.20
2013,07,01,03,08,20.20
2013,07,01,03,09,20.20
2013,07,01,03,10,20.20
2013,07,01,03,11,20.20
2013,07,01,03,12,20.20
2013,07,01,03,13,20.20
2013,07,01,03,14,20.30
2013,07,01,03,15,20.30
2013,07,01,03,16,20.20
2013,07,01,03,17,20.30
2013,07,01,03,18,20.30
2013,07,01,03,19,20.30
2013,07,01,03,20,20.30
2013,07,01,03,21,20.30
2013,07,01,03,22,20.30
2013,07,01,03,23,20.20
2013,07,01,03,24,20.20
2013,07,01,03,25,20.20
2013,07,01,03,26,20.20
2013,07,01,03,27,20.20
2013,07,01,03,28,20.20
2013,07,01,03,29,20.20
2013,07,01,03,30,20.10
2013,07,01,03,31,20.10
2013,07,01,03,32,20.00
2013,07,01,03,33,20.00
2013,07,01,03,34,20.00
2013,07,01,03,35,20.00
2013,07,01,03,36,19.90
2013,07,01,03,37,19.90
2013,07,01,03,38,19.90
2013,07,01,03,39,19.90
2013,07,01,03,40,19.90
2013,07,01,03,41,19.80
2013,07,01,03,42,19.80
2013,07,01,03,43,19.80
2013,07,01,03,44,19.80
2013,07,01,03,45,19.70
2013,07,01,03,46,19.70
2013,07,01,03,47,19.60
2013,07,01,03,48,19.60
2013,07,01,03,49,19.60
2013,07,01,03,50,19.50
2013,07,01,03,51,19.50
2013,07,01,03,52,19.40
2013,07,01,03,53,19.40
2013,07,01,03,54,19.30
2013,07,01,03,55,19.30
2013,07,01,03,56,19.30
2013,07,01,03,57,19.20
2013,07,01,03,58,19.10
2013,07,01,03,59,19.10
2013,07,01,04,00,19.00
2013,07,01,04,01,19.00
2013,07,01,04,02,19.00
2013,07,01,04,03,18.90
2013,07,01,04,04,18.90
2013,07,01,04,05,18.80
2013,07,01,04,06,18.80
2013,07,01,04,07,18.80
2013,07,01,04,08,18.80
2013,07,01,04,09,18.70
2013,07,01,04,10,18.70
2013,07,01,04,11,18.70
2013,07,01,04,12,18.70
2013,07,01,04,13,18.60
2013,07,01,04,14,18.60
2013,07,01,04,15,18.60
2013,07,01,04,16,18.60
2013,07,01,04,17,18.50
2013,07,01,04,18,18.50
2013,07,01,04,19,18.50
2013,07,01,04,20,18.40
2013,07,01,04,21,18.40
2013,07,01,04,22,18.40
2013,07,01,04,23,18.40
2013,07,01,04,24,18.40
2013,07,01,04,25,18.30
2013,07,01,04,26,18.30
2013,07,01,04,27,18.30
2013,07,01,04,28,18.30
2013,07,01,04,29,18.30
2013,07,01,04,30,18.20
2013,07,01,04,31,18.20
2013,07,01,04,32,18.20
2013,07,01,04,33,18.20
2013,07,01,04,34,18.20
2013,07,01,04,35,18.10
2013,07,01,04,36,18.10
2013,07,01,04,37,18.10
2013,07,01,04,38,18.10
2013,07,01,04,39,18.10
2013,07,01,04,40,18.10
2013,07,01,04,41,18.00
2013,07,01,04,42,18.00
2013,07,01,04,43,18.00
2013,07,01,04,44,18.00
2013,07,01,04,45,17.90
2013,07,01,04,46,18.00
2013,07,01,04,47,18.00
2013,07,01,04,48,17.90
2013,07,01,04,49,17.90
2013,07,01,04,50,17.90
2013,07,01,04,51,17.90
2013,07,01,04,52,17.90
2013,07,01,04,53,17.90
2013,07,01,04,54,17.90
2013,07,01,04,55,17.90
2013,07,01,04,56,17.90
2013,07,01,04,57,17.90
2013,07,01,04,58,17.90
2013,07,01,04,59,17.80
2013,07,01,05,00,17.80
2013,07,01,05,01,17.80
2013,07,01,05,02,17.80
2013,07,01,05,03,17.80
2013,07,01,05,04,17.80
2013,07,01,05,05,17.80
2013,07,01,05,06,17.80
2013,07,01,05,07,17.80
2013,07,01,05,08,17.80
2013,07,01,05,09,17.80
2013,07,01,05,10,17.70
2013,07,01,05,11,17.70
2013,07,01,05,12,17.70
2013,07,01,05,13,17.70
2013,07,01,05,14,17.70
2013,07,01,05,15,17.60
2013,07,01,05,16,17.60
2013,07,01,05,17,17.60
2013,07,01,05,18,17.60
2013,07,01,05,19,17.60
2013,07,01,05,20,17.60
2013,07,01,05,21,17.50
2013,07,01,05,22,17.50
2013,07,01,05,23,17.40
2013,07,01,05,24,17.40
2013,07,01,05,25,17.40
2013,07,01,05,26,17.40
2013,07,01,05,27,17.40
2013,07,01,05,28,17.40
2013,07,01,05,29,17.40
2013,07,01,05,30,17.40
2013,07,01,05,31,17.40
2013,07,01,05,32,17.40
2013,07,01,05,33,17.40
2013,07,01,05,34,17.30
2013,07,01,05,35,17.30
2013,07,01,05,36,17.30
2013,07,01,05,37,17.30
2013,07,01,05,38,17.30
2013,07,01,05,39,17.30
2013,07,01,05,40,17.20
2013,07,01,05,41,17.20
2013,07,01,05,42,17.20
2013,07,01,05,43,17.20
2013,07,01,05,44,17.20
2013,07,01,05,45,17.20
2013,07,01,05,46,17.20
2013,07,01,05,47,17.20
2013,07,01,05,48,17.20
2013,07,01,05,49,17.20
2013,07,01,05,50,17.20
2013,07,01,05,51,17.20
2013,07,01,05,52,17.20
2013,07,01,05,53,17.20
2013,07,01,05,54,17.20
2013,07,01,05,55,17.20
2013,07,01,05,56,17.20
2013,07,01,05,57,17.30
2013,07,01,05,58,17.30
2013,07,01,05,59,17.30
2013,07,01,06,00,17.30
2013,07,01,06,01,17.30
2013,07,01,06,02,17.30
2013,07,01,06,03,17.30
2013,07,01,06,04,17.30
2013,07,01,06,05,17.30
2013,07,01,06,06,17.40
2013,07,01,06,07,17.40
2013,07,01,06,08,17.40
2013,07,01,06,09,17.40
2013,07,01,06,10,17.40
2013,07,01,06,11,17.50
2013,07,01,06,12,17.50
2013,07,01,06,13,17.50
2013,07,01,06,14,17.50
2013,07,01,06,15,17.50
2013,07,01,06,16,17.60
2013,07,01,06,17,17.60
2013,07,01,06,18,17.60
2013,07,01,06,19,17.60
2013,07,01,06,20,17.70
2013,07,01,06,21,17.70
2013,07,01,06,22,17.70
2013,07,01,06,23,17.80
2013,07,01,06,24,17.80
2013,07,01,06,25,17.80
2013,07,01,06,26,17.80
2013,07,01,06,27,17.80
2013,07,01,06,28,17.90
2013,07,01,06,29,17.90
2013,07,01,06,30,18.00
2013,07,01,06,31,18.00
2013,07,01,06,32,18.10
2013,07,01,06,33,18.10
2013,07,01,06,34,18.20
2013,07,01,06,35,18.20
2013,07,01,06,36,18.20
2013,07,01,06,37,18.30
2013,07,01,06,38,18.30
2013,07,01,06,39,18.30
2013,07,01,06,40,18.40
2013,07,01,06,41,18.40
2013,07,01,06,42,18.50
2013,07,01,06,43,18.50
2013,07,01,06,44,18.60
2013,07,01,06,45,18.70
2013,07,01,06,46,18.80
2013,07,01,06,47,19.00
2013,07,01,06,48,19.00
2013,07,01,06,49,19.10
2013,07,01,06,50,19.20
2013,07,01,06,51,19.20
2013,07,01,06,52,19.30
2013,07,01,06,53,19.40
2013,07,01,06,54,19.50
2013,07,01,06,55,19.60
2013,07,01,06,56,19.70
2013,07,01,06,57,19.70
2013,07,01,06,58,19.80
2013,07,01,06,59,19.90
2013,07,01,07,00,20.00
2013,07,01,07,01,20.10
2013,07,01,07,02,20.20
2013,07,01,07,03,20.30
2013,07,01,07,04,20.30
2013,07,01,07,05,20.40
2013,07,01,07,06,20.50
2013,07,01,07,07,20.60
2013,07,01,07,08,20.70
2013,07,01,07,09,20.70
2013,07,01,07,10,20.80
2013,07,01,07,11,20.90
2013,07,01,07,12,21.00
2013,07,01,07,13,21.00
2013,07,01,07,14,21.10
2013,07,01,07,15,21.20
2013,07,01,07,16,21.30
2013,07,01,07,17,21.40
2013,07,01,07,18,21.40
2013,07,01,07,19,21.50
2013,07,01,07,20,21.60
2013,07,01,07,21,21.70
2013,07,01,07,22,21.80
2013,07,01,07,23,21.90
2013,07,01,07,24,22.00
2013,07,01,07,25,22.10
2013,07,01,07,26,22.10
2013,07,01,07,27,22.10
2013,07,01,07,28,22.00
2013,07,01,07,29,21.90
2013,07,01,07,30,21.90
2013,07,01,07,31,21.80
2013,07,01,07,32,21.80
2013,07,01,07,33,21.80
2013,07,01,07,34,21.70
2013,07,01,07,35,21.70
2013,07,01,07,36,21.70
2013,07,01,07,37,21.70
2013,07,01,07,38,21.80
2013,07,01,07,39,21.80
2013,07,01,07,40,21.80
2013,07,01,07,41,21.80
2013,07,01,07,42,21.80
2013,07,01,07,43,21.80
2013,07,01,07,44,21.70
2013,07,01,07,45,21.70
2013,07,01,07,46,21.60
2013,07,01,07,47,21.60
2013,07,01,07,48,21.50
2013,07,01,07,49,21.40
2013,07,01,07,50,21.30
2013,07,01,07,51,21.30
2013,07,01,07,52,21.20
2013,07,01,07,53,21.20
2013,07,01,07,54,21.20
2013,07,01,07,55,21.10
2013,07,01,07,56,21.20
2013,07,01,07,57,21.20
2013,07,01,07,58,21.20
2013,07,01,07,59,21.30
2013,07,01,08,00,21.30
2013,07,01,08,01,21.30
2013,07,01,08,02,21.40
2013,07,01,08,03,21.40
2013,07,01,08,04,21.40
2013,07,01,08,05,21.40
2013,07,01,08,06,21.40
2013,07,01,08,07,21.40
2013,07,01,08,08,21.50
2013,07,01,08,09,21.50
2013,07,01,08,10,21.40
2013,07,01,08,11,21.40
2013,07,01,08,12,21.40
2013,07,01,08,13,21.40
2013,07,01,08,14,21.30
2013,07,01,08,15,21.30
2013,07,01,08,16,21.20
2013,07,01,08,17,21.20
2013,07,01,08,18,21.20
2013,07,01,08,19,21.20
2013,07,01,08,20,21.20
2013,07,01,08,21,21.10
2013,07,01,08,22,21.10
2013,07,01,08,23,21.10
2013,07,01,08,24,21.10
2013,07,01,08,25,21.10
2013,07,01,08,26,21.20
2013,07,01,08,27,21.30
2013,07,01,08,28,21.30
2013,07,01,08,29,21.30
2013,07,01,08,30,21.40
2013,07,01,08,31,21.40
2013,07,01,08,32,21.40
2013,07,01,08,33,21.40
2013,07,01,08,34,21.40
2013,07,01,08,35,21.40
2013,07,01,08,36,21.50
2013,07,01,08,37,21.50
2013,07,01,08,38,21.60
2013,07,01,08,39,21.60
2013,07,01,08,40,21.60
2013,07,01,08,41,21.60
2013,07,01,08,42,21.70
2013,07,01,08,43,21.70
2013,07,01,08,44,21.70
2013,07,01,08,45,21.70
2013,07,01,08,46,21.70
2013,07,01,08,47,21.70
2013,07,01,08,48,21.70
2013,07,01,08,49,21.60
2013,07,01,08,50,21.60
2013,07,01,08,51,21.60
2013,07,01,08,52,21.60
2013,07,01,08,53,21.50
2013,07,01,08,54,21.50
2013,07,01,08,55,21.40
2013,07,01,08,56,21.40
2013,07,01,08,57,21.40
2013,07,01,08,58,21.40
2013,07,01,08,59,21.40
2013,07,01,09,00,21.30
2013,07,01,09,01,21.30
2013,07,01,09,02,21.20
2013,07,01,09,03,21.20
2013,07,01,09,04,21.20
2013,07,01,09,05,21.10
2013,07,01,09,06,21.10
2013,07,01,09,07,21.10
2013,07,01,09,08,21.10
2013,07,01,09,09,21.20
2013,07,01,09,10,21.20
2013,07,01,09,11,21.20
2013,07,01,09,12,21.20
2013,07,01,09,13,21.30
2013,07,01,09,14,21.30
2013,07,01,09,15,21.30
2013,07,01,09,16,21.30
2013,07,01,09,17,21.30
2013,07,01,09,18,21.20
2013,07,01,09,19,21.20
2013,07,01,09,20,21.10
2013,07,01,09,21,21.10
2013,07,01,09,22,21.10
2013,07,01,09,23,21.10
2013,07,01,09,24,21.10
2013,07,01,09,25,21.10
2013,07,01,09,26,21.10
2013,07,01,09,27,21.10
2013,07,01,09,28,21.10
2013,07,01,09,29,21.20
2013,07,01,09,30,21.20
2013,07,01,09,31,21.10
2013,07,01,09,32,21.10
2013,07,01,09,33,21.00
2013,07,01,09,34,21.00
2013,07,01,09,35,20.90
2013,07,01,09,36,20.90
2013,07,01,09,37,20.90
2013,07,01,09,38,20.80
2013,07,01,09,39,20.80
2013,07,01,09,40,20.80
2013,07,01,09,41,20.80
2013,07,01,09,42,20.70
2013,07,01,09,43,20.70
2013,07,01,09,44,20.70
2013,07,01,09,45,20.70
2013,07,01,09,46,20.80
2013,07,01,09,47,20.90
2013,07,01,09,48,20.90
2013,07,01,09,49,20.90
2013,07,01,09,50,21.00
2013,07,01,09,51,21.00
2013,07,01,09,52,20.90
2013,07,01,09,53,20.90
2013,07,01,09,54,21.00
2013,07,01,09,55,21.00
2013,07,01,09,56,21.10
2013,07,01,09,57,21.10
2013,07,01,09,58,21.20
2013,07,01,09,59,21.20
2013,07,01,10,00,21.20
2013,07,01,10,01,21.20
2013,07,01,10,02,21.20
2013,07,01,10,03,21.20
2013,07,01,10,04,21.30
2013,07,01,10,05,21.30
2013,07,01,10,06,21.40
2013,07,01,10,07,21.40
2013,07,01,10,08,21.40
2013,07,01,10,09,21.40
2013,07,01,10,10,21.50
2013,07,01,10,11,21.60
2013,07,01,10,12,21.60
2013,07,01,10,13,21.60
2013,07,01,10,14,21.60
2013,07,01,10,15,21.50
2013,07,01,10,16,21.50
2013,07,01,10,17,21.40
2013,07,01,10,18,21.30
2013,07,01,10,19,21.20
2013,07,01,10,20,21.10
2013,07,01,10,21,21.10
2013,07,01,10,22,21.10
2013,07,01,10,23,21.10
2013,07,01,10,24,21.10
2013,07,01,10,25,21.10
2013,07,01,10,26,21.10
2013,07,01,10,27,21.10
2013,07,01,10,28,21.10
2013,07,01,10,29,21.10
2013,07,01,10,30,21.10
2013,07,01,10,31,21.10
2013,07,01,10,32,21.20
2013,07,01,10,33,21.20
2013,07,01,10,34,21.20
2013,07,01,10,35,21.10
2013,07,01,10,36,21.10
2013,07,01,10,37,21.10
2013,07,01,10,38,21.20
2013,07,01,10,39,21.20
2013,07,01,10,40,21.20
2013,07,01,10,41,21.20
2013,07,01,10,42,21.20
2013,07,01,10,43,21.20
2013,07,01,10,44,21.20
2013,07,01,10,45,21.20
2013,07,01,10,46,21.20
2013,07,01,10,47,21.20
2013,07,01,10,48,21.20
2013,07,01,10,49,21.20
2013,07,01,10,50,21.20
2013,07,01,10,51,21.20
2013,07,01,10,52,21.30
2013,07,01,10,53,21.20
2013,07,01,10,54,21.20
2013,07,01,10,55,21.20
2013,07,01,10,56,21.20
2013,07,01,10,57,21.20
2013,07,01,10,58,21.10
2013,07,01,10,59,21.10
2013,07,01,11,00,21.20
2013,07,01,11,01,21.20
2013,07,01,11,02,21.20
2013,07,01,11,03,21.20
2013,07,01,11,04,21.20
2013,07,01,11,05,21.20
2013,07,01,11,06,21.30
2013,07,01,11,07,21.30
2013,07,01,11,08,21.30
2013,07,01,11,09,21.30
2013,07,01,11,10,21.30
2013,07,01,11,11,21.30
2013,07,01,11,12,21.40
2013,07,01,11,13,21.40
2013,07,01,11,14,21.50
2013,07,01,11,15,21.50
2013,07,01,11,16,21.60
2013,07,01,11,17,21.60
2013,07,01,11,18,21.60
2013,07,01,11,19,21.60
2013,07,01,11,20,21.60
2013,07,01,11,21,21.60
2013,07,01,11,22,21.60
2013,07,01,11,23,21.60
2013,07,01,11,24,21.50
2013,07,01,11,25,21.50
2013,07,01,11,26,21.60
2013,07,01,11,27,21.60
2013,07,01,11,28,21.60
2013,07,01,11,29,21.60
2013,07,01,11,30,21.60
2013,07,01,11,31,21.70
2013,07,01,11,32,21.70
2013,07,01,11,33,21.80
2013,07,01,11,34,21.80
2013,07,01,11,35,21.90
2013,07,01,11,36,22.00
2013,07,01,11,37,22.00
2013,07,01,11,38,22.00
2013,07,01,11,39,22.00
2013,07,01,11,40,22.10
2013,07,01,11,41,22.10
2013,07,01,11,42,22.10
2013,07,01,11,43,22.10
2013,07,01,11,44,22.10
2013,07,01,11,45,22.10
2013,07,01,11,46,22.10
2013,07,01,11,47,22.10
2013,07,01,11,48,22.10
2013,07,01,11,49,22.10
2013,07,01,11,50,22.10
2013,07,01,11,51,22.10
2013,07,01,11,52,22.10
2013,07,01,11,53,22.20
2013,07,01,11,54,22.30
2013,07,01,11,55,22.30
2013,07,01,11,56,22.40
2013,07,01,11,57,22.40
2013,07,01,11,58,22.40
2013,07,01,11,59,22.40
2013,07,01,12,00,22.40
2013,07,01,12,01,22.40
2013,07,01,12,02,22.40
2013,07,01,12,03,22.40
2013,07,01,12,04,22.40
2013,07,01,12,05,22.40
2013,07,01,12,06,22.30
2013,07,01,12,07,22.30
2013,07,01,12,08,22.20
2013,07,01,12,09,22.20
2013,07,01,12,10,22.20
2013,07,01,12,11,22.20
2013,07,01,12,12,22.20
2013,07,01,12,13,22.20
2013,07,01,12,14,22.20
2013,07,01,12,15,22.20
2013,07,01,12,16,22.20
2013,07,01,12,17,22.30
2013,07,01,12,18,22.30
2013,07,01,12,19,22.30
2013,07,01,12,20,22.30
2013,07,01,12,21,22.40
2013,07,01,12,22,22.50
2013,07,01,12,23,22.60
2013,07,01,12,24,22.70
2013,07,01,12,25,22.70
2013,07,01,12,26,22.80
2013,07,01,12,27,22.80
2013,07,01,12,28,22.90
2013,07,01,12,29,22.90
2013,07,01,12,30,22.90
2013,07,01,12,31,22.90
2013,07,01,12,32,23.00
2013,07,01,12,33,23.00
2013,07,01,12,34,23.20
2013,07,01,12,35,23.30
2013,07,01,12,36,23.40
2013,07,01,12,37,23.40
2013,07,01,12,38,23.40
2013,07,01,12,39,23.40
2013,07,01,12,40,23.40
2013,07,01,12,41,23.40
2013,07,01,12,42,23.40
2013,07,01,12,43,23.50
2013,07,01,12,44,23.50
2013,07,01,12,45,23.50
2013,07,01,12,46,23.50
2013,07,01,12,47,23.60
2013,07,01,12,48,23.60
2013,07,01,12,49,23.60
2013,07,01,12,50,23.70
2013,07,01,12,51,23.70
2013,07,01,12,52,23.70
2013,07,01,12,53,23.70
2013,07,01,12,54,23.70
2013,07,01,12,55,23.70
2013,07,01,12,56,23.80
2013,07,01,12,57,23.80
2013,07,01,12,58,23.90
2013,07,01,12,59,24.00
2013,07,01,13,00,24.00
2013,07,01,13,01,24.00
2013,07,01,13,02,24.00
2013,07,01,13,03,23.90
2013,07,01,13,04,23.90
2013,07,01,13,05,23.80
2013,07,01,13,06,23.90
2013,07,01,13,07,23.90
2013,07,01,13,08,23.90
2013,07,01,13,09,23.90
2013,07,01,13,10,23.90
2013,07,01,13,11,24.00
2013,07,01,13,12,24.00
2013,07,01,13,13,24.00
2013,07,01,13,14,24.10
2013,07,01,13,15,24.00
2013,07,01,13,16,24.00
2013,07,01,13,17,23.90
2013,07,01,13,18,23.80
2013,07,01,13,19,23.80
2013,07,01,13,20,23.80
2013,07,01,13,21,23.70
2013,07,01,13,22,23.70
2013,07,01,13,23,23.60
2013,07,01,13,24,23.60
2013,07,01,13,25,23.60
2013,07,01,13,26,23.60
2013,07,01,13,27,23.60
2013,07,01,13,28,23.60
2013,07,01,13,29,23.60
2013,07,01,13,30,23.60
2013,07,01,13,31,23.70
2013,07,01,13,32,23.70
2013,07,01,13,33,23.80
2013,07,01,13,34,23.80
2013,07,01,13,35,23.80
2013,07,01,13,36,23.80
2013,07,01,13,37,23.90
2013,07,01,13,38,23.90
2013,07,01,13,39,23.90
2013,07,01,13,40,24.00
2013,07,01,13,41,24.00
2013,07,01,13,42,24.10
2013,07,01,13,43,24.10
2013,07,01,13,44,24.20
2013,07,01,13,45,24.20
2013,07,01,13,46,24.20
2013,07,01,13,47,24.30
2013,07,01,13,48,24.30
2013,07,01,13,49,24.30
2013,07,01,13,50,24.30
2013,07,01,13,51,24.30
2013,07,01,13,52,24.30
2013,07,01,13,53,24.30
2013,07,01,13,54,24.30
2013,07,01,13,55,24.30
2013,07,01,13,56,24.30
2013,07,01,13,57,24.30
2013,07,01,13,58,24.20
2013,07,01,13,59,24.20
2013,07,01,14,00,24.20
2013,07,01,14,01,24.10
2013,07,01,14,02,24.10
2013,07,01,14,03,24.20
2013,07,01,14,04,24.30
2013,07,01,14,05,24.40
2013,07,01,14,06,24.40
2013,07,01,14,07,24.40
2013,07,01,14,08,24.40
2013,07,01,14,09,24.30
2013,07,01,14,10,24.30
2013,07,01,14,11,24.30
2013,07,01,14,12,24.30
2013,07,01,14,13,24.30
2013,07,01,14,14,24.30
2013,07,01,14,15,24.20
2013,07,01,14,16,24.20
2013,07,01,14,17,24.10
2013,07,01,14,18,24.10
2013,07,01,14,19,24.10
2013,07,01,14,20,24.20
2013,07,01,14,21,24.20
2013,07,01,14,22,24.20
2013,07,01,14,23,24.20
2013,07,01,14,24,24.30
2013,07,01,14,25,24.30
2013,07,01,14,26,24.40
2013,07,01,14,27,24.40
2013,07,01,14,28,24.40
2013,07,01,14,29,24.50
2013,07,01,14,30,24.50
2013,07,01,14,31,24.60
2013,07,01,14,32,24.60
2013,07,01,14,33,24.70
2013,07,01,14,34,24.70
2013,07,01,14,35,24.70
2013,07,01,14,36,24.80
2013,07,01,14,37,24.80
2013,07,01,14,38,24.90
2013,07,01,14,39,24.90
2013,07,01,14,40,24.90
2013,07,01,14,41,24.80
2013,07,01,14,42,24.80
2013,07,01,14,43,24.90
2013,07,01,14,44,24.90
2013,07,01,14,45,24.90
2013,07,01,14,46,24.90
2013,07,01,14,47,24.90
2013,07,01,14,48,24.90
2013,07,01,14,49,24.90
2013,07,01,14,50,24.90
2013,07,01,14,51,24.90
2013,07,01,14,52,24.90
2013,07,01,14,53,24.80
2013,07,01,14,54,24.80
2013,07,01,14,55,24.80
2013,07,01,14,56,24.70
2013,07,01,14,57,24.70
2013,07,01,14,58,24.60
2013,07,01,14,59,24.60
2013,07,01,15,00,24.60
2013,07,01,15,01,24.50
2013,07,01,15,02,24.50
2013,07,01,15,03,24.60
2013,07,01,15,04,24.60
2013,07,01,15,05,24.70
2013,07,01,15,06,24.70
2013,07,01,15,07,24.70
2013,07,01,15,08,24.70
2013,07,01,15,09,24.70
2013,07,01,15,10,24.80
2013,07,01,15,11,24.90
2013,07,01,15,12,24.90
2013,07,01,15,13,24.90
2013,07,01,15,14,25.00
2013,07,01,15,15,25.00
2013,07,01,15,16,25.00
2013,07,01,15,17,25.10
2013,07,01,15,18,25.10
2013,07,01,15,19,25.20
2013,07,01,15,20,25.40
2013,07,01,15,21,25.50
2013,07,01,15,22,25.60
2013,07,01,15,23,25.70
2013,07,01,15,24,25.80
2013,07,01,15,25,25.90
2013,07,01,15,26,25.90
2013,07,01,15,27,25.90
2013,07,01,15,28,25.90
2013,07,01,15,29,25.90
2013,07,01,15,30,25.90
2013,07,01,15,31,25.80
2013,07,01,15,32,25.80
2013,07,01,15,33,25.80
2013,07,01,15,34,25.80
2013,07,01,15,35,25.80
2013,07,01,15,36,25.80
2013,07,01,15,37,25.70
2013,07,01,15,38,25.70
2013,07,01,15,39,25.60
2013,07,01,15,40,25.60
2013,07,01,15,41,25.60
2013,07,01,15,42,25.60
2013,07,01,15,43,25.70
2013,07,01,15,44,25.70
2013,07,01,15,45,25.70
2013,07,01,15,46,25.70
2013,07,01,15,47,25.80
2013,07,01,15,48,25.80
2013,07,01,15,49,25.80
2013,07,01,15,50,25.90
2013,07,01,15,51,25.90
2013,07,01,15,52,26.00
2013,07,01,15,53,26.00
2013,07,01,15,54,26.10
2013,07,01,15,55,26.10
2013,07,01,15,56,26.20
2013,07,01,15,57,26.20
2013,07,01,15,58,26.20
2013,07,01,15,59,26.30
2013,07,01,16,00,26.40
2013,07,01,16,01,26.40
2013,07,01,16,02,26.40
2013,07,01,16,03,26.40
2013,07,01,16,04,26.40
2013,07,01,16,05,26.40
2013,07,01,16,06,26.40
2013,07,01,16,07,26.40
2013,07,01,16,08,26.40
2013,07,01,16,09,26.30
2013,07,01,16,10,26.30
2013,07,01,16,11,26.30
2013,07,01,16,12,26.30
2013,07,01,16,13,26.30
2013,07,01,16,14,26.30
2013,07,01,16,15,26.40
2013,07,01,16,16,26.50
2013,07,01,16,17,26.50
2013,07,01,16,18,26.60
2013,07,01,16,19,26.70
2013,07,01,16,20,26.70
2013,07,01,16,21,26.80
2013,07,01,16,22,26.80
2013,07,01,16,23,26.90
2013,07,01,16,24,26.90
2013,07,01,16,25,26.90
2013,07,01,16,26,27.00
2013,07,01,16,27,27.10
2013,07,01,16,28,27.10
2013,07,01,16,29,27.10
2013,07,01,16,30,27.10
2013,07,01,16,31,27.10
2013,07,01,16,32,27.10
2013,07,01,16,33,27.10
2013,07,01,16,34,27.10
2013,07,01,16,35,27.00
2013,07,01,16,36,26.90
2013,07,01,16,37,26.90
2013,07,01,16,38,26.80
2013,07,01,16,39,26.80
2013,07,01,16,40,26.80
2013,07,01,16,41,26.70
2013,07,01,16,42,26.70
2013,07,01,16,43,26.70
2013,07,01,16,44,26.60
2013,07,01,16,45,26.60
2013,07,01,16,46,26.60
2013,07,01,16,47,26.50
2013,07,01,16,48,26.50
2013,07,01,16,49,26.40
2013,07,01,16,50,26.40
2013,07,01,16,51,26.30
2013,07,01,16,52,26.20
2013,07,01,16,53,26.10
2013,07,01,16,54,26.10
2013,07,01,16,55,26.00
2013,07,01,16,56,26.00
2013,07,01,16,57,25.90
2013,07,01,16,58,25.80
2013,07,01,16,59,25.80
2013,07,01,17,00,25.80
2013,07,01,17,01,25.70
2013,07,01,17,02,25.70
2013,07,01,17,03,25.70
2013,07,01,17,04,25.70
2013,07,01,17,05,25.70
2013,07,01,17,06,25.70
2013,07,01,17,07,25.70
2013,07,01,17,08,25.70
2013,07,01,17,09,25.80
2013,07,01,17,10,25.80
2013,07,01,17,11,25.80
2013,07,01,17,12,25.80
2013,07,01,17,13,25.90
2013,07,01,17,14,26.00
2013,07,01,17,15,26.00
2013,07,01,17,16,26.10
2013,07,01,17,17,26.20
2013,07,01,17,18,26.30
2013,07,01,17,19,26.40